Location: Sungai Bunut
(2.6333°N, 113.7333°E)
Time: 14:56:47
(UTC+00:00)

Altair - Pass Details

Date: 08 December 2023
Orbit: 1501 x 1682 km, 47.2° (Epoch: 24 February)

Event Time Altitude Azimuth Distance (km) Brightness Sun altitude
Rises 21:16:28 0° 229° (SW) 4,932 9.9 -15.0°
Reaches altitude 10° 21:19:43 10° 233° (SW) 3,939 9.4 -14.2°
Maximum altitude 21:29:36 58° 310° (NW) 1,882 7.7 -11.9°
Drops below altitude 10° 21:39:15 10° 27° (NNE) 3,839 9.7 -9.7°
Sets 21:42:24 0° 31° (NNE) 4,800 10.2 -9.0°
